Location: Unspecified
(0.0000°N, 0.0000°E)
Time: 12:24:23
(UTC+00:00)

deb OV3-4 - Pass Details

Date: 18 June 2025
Orbit: 581 x 4212 km, 40.6° (Epoch: 19 July)

Event Time Altitude Azimuth Distance (km) Brightness Sun altitude
Rises 22:09:50 0° 307° (NW) 8,433 ? -54.2°
Reaches altitude 10° 22:15:52 10° 304° (NW) 7,396 ? -55.3°
Enters shadow 22:36:05 55° 265° (W) 3,962 ? -58.7°
